Time,TemperatureF,DewpointF,PressureIn,WindDirection,WindDirectionDegrees,WindSpeedMPH,WindSpeedGustMPH,Humidity,HourlyPrecipIn,Conditions,Clouds,dailyrainin,SoftwareType,DateUTC
2013-09-23 00:01:00,49.3,44.7,30.02,West,259,0.9,1.2,84,0.00,BKN,,0.00,WeatherDisplay:10.37,2013-09-23 04:01:00,
2013-09-23 00:02:00,49.3,44.7,30.02,West,259,0.2,2.3,84,0.00,BKN,,0.00,WeatherDisplay:10.37,2013-09-23 04:02:00,
2013-09-23 00:07:00,49.3,45.0,30.02,WNW,283,0.4,1.2,85,0.00,BKN,,0.00,WeatherDisplay:10.37,2013-09-23 04:07:00,
2013-09-23 00:12:00,49.3,45.0,30.02,West,271,0.6,1.2,85,0.00,BKN,,0.00,WeatherDisplay:10.37,2013-09-23 04:12:00,
2013-09-23 00:17:00,49.3,45.0,30.02,West,271,0.3,1.2,85,0.00,BKN,,0.00,WeatherDisplay:10.37,2013-09-23 04:17:00,
2013-09-23 00:22:00,49.3,45.0,30.02,West,278,0.0,0.0,85,0.00,BKN,,0.00,WeatherDisplay:10.37,2013-09-23 04:22:00,
2013-09-23 00:27:00,49.3,45.0,30.02,West,278,0.0,0.0,85,0.00,BKN,,0.00,WeatherDisplay:10.37,2013-09-23 04:27:00,
2013-09-23 00:32:00,49.3,45.0,30.02,West,278,0.0,1.2,85,0.00,BKN,,0.00,WeatherDisplay:10.37,2013-09-23 04:32:00,
2013-09-23 00:37:00,49.3,45.0,30.02,West,278,0.2,1.0,85,0.00,BKN,,0.00,WeatherDisplay:10.37,2013-09-23 04:37:00,
2013-09-23 00:42:00,49.3,45.0,30.02,West,278,0.0,1.2,85,0.00,BKN,,0.00,WeatherDisplay:10.37,2013-09-23 04:42:00,
2013-09-23 00:47:00,49.3,45.3,30.02,West,278,0.0,1.0,86,0.00,BKN,,0.00,WeatherDisplay:10.37,2013-09-23 04:47:00,
2013-09-23 00:52:00,49.3,45.3,30.03,West,277,0.1,0.0,86,0.00,BKN,,0.00,WeatherDisplay:10.37,2013-09-23 04:52:00,
2013-09-23 00:57:00,49.3,45.3,30.03,West,276,0.0,0.0,86,0.00,BKN,,0.00,WeatherDisplay:10.37,2013-09-23 04:57:00,
2013-09-23 01:02:00,49.3,45.3,30.03,West,278,0.3,1.2,86,0.00,BKN,,0.00,WeatherDisplay:10.37,2013-09-23 05:02:00,
2013-09-23 01:07:00,49.3,45.3,30.03,West,278,0.5,1.2,86,0.00,BKN,,0.00,WeatherDisplay:10.37,2013-09-23 05:07:00,
2013-09-23 01:12:00,49.3,45.3,30.03,West,278,0.0,0.0,86,0.00,BKN,,0.00,WeatherDisplay:10.37,2013-09-23 05:12:00,
2013-09-23 01:17:00,49.3,45.3,30.03,West,278,0.0,1.2,86,0.00,BKN,,0.00,WeatherDisplay:10.37,2013-09-23 05:17:00,
2013-09-23 01:22:00,49.3,45.3,30.03,West,278,0.0,0.0,86,0.00,BKN,,0.00,WeatherDisplay:10.37,2013-09-23 05:22:00,
2013-09-23 01:27:00,49.3,45.6,30.03,WNW,300,0.2,2.3,87,0.00,BKN,,0.00,WeatherDisplay:10.37,2013-09-23 05:27:00,
2013-09-23 01:32:00,49.2,45.2,30.03,NW,308,0.4,2.3,86,0.00,BKN,,0.00,WeatherDisplay:10.37,2013-09-23 05:32:00,
2013-09-23 01:37:00,49.1,45.1,30.03,NW,308,0.0,0.0,86,0.00,BKN,,0.00,WeatherDisplay:10.37,2013-09-23 05:37:00,
2013-09-23 01:42:00,49.0,45.0,30.03,NW,308,0.0,0.0,86,0.00,BKN,,0.00,WeatherDisplay:10.37,2013-09-23 05:42:00,
2013-09-23 01:47:00,49.0,45.3,30.04,NW,308,0.0,0.0,87,0.00,BKN,,0.00,WeatherDisplay:10.37,2013-09-23 05:47:00,
2013-09-23 01:52:00,48.9,45.2,30.04,NW,308,0.0,0.0,87,0.00,BKN,,0.00,WeatherDisplay:10.37,2013-09-23 05:52:00,
2013-09-23 01:57:00,48.9,45.2,30.04,NW,308,0.0,0.0,87,0.00,BKN,,0.00,WeatherDisplay:10.37,2013-09-23 05:57:00,
2013-09-23 02:02:00,48.9,45.2,30.04,NW,308,0.1,0.0,87,0.00,BKN,,0.00,WeatherDisplay:10.37,2013-09-23 06:02:00,
2013-09-23 02:07:00,48.9,45.2,30.04,NW,308,0.0,0.0,87,0.00,BKN,,0.00,WeatherDisplay:10.37,2013-09-23 06:07:00,
2013-09-23 02:12:00,48.9,45.2,30.05,NW,308,0.0,0.0,87,0.00,BKN,,0.00,WeatherDisplay:10.37,2013-09-23 06:12:00,
2013-09-23 02:17:00,48.9,45.2,30.05,NW,308,0.0,0.0,87,0.00,BKN,,0.00,WeatherDisplay:10.37,2013-09-23 06:17:00,
2013-09-23 02:22:00,48.8,45.1,30.05,NW,308,0.0,0.0,87,0.00,BKN,,0.00,WeatherDisplay:10.37,2013-09-23 06:22:00,
2013-09-23 02:27:00,48.8,45.4,30.05,NW,308,0.0,0.0,88,0.00,BKN,,0.00,WeatherDisplay:10.37,2013-09-23 06:27:00,
2013-09-23 02:32:00,48.8,45.4,30.05,NW,308,0.0,0.0,88,0.00,BKN,,0.00,WeatherDisplay:10.37,2013-09-23 06:32:00,
2013-09-23 02:37:00,48.9,45.5,30.05,NW,307,0.0,0.0,88,0.00,BKN,,0.00,WeatherDisplay:10.37,2013-09-23 06:37:00,
2013-09-23 02:42:00,48.9,45.5,30.05,NW,308,0.0,0.0,88,0.00,BKN,,0.00,WeatherDisplay:10.37,2013-09-23 06:42:00,
2013-09-23 02:47:00,48.9,45.5,30.05,NW,308,0.0,0.0,88,0.00,BKN,,0.00,WeatherDisplay:10.37,2013-09-23 06:47:00,
2013-09-23 02:52:00,48.9,45.5,30.05,NW,308,0.0,0.0,88,0.00,BKN,,0.00,WeatherDisplay:10.37,2013-09-23 06:52:00,
2013-09-23 02:57:00,48.9,45.5,30.05,NW,304,0.0,0.0,88,0.00,BKN,,0.00,WeatherDisplay:10.37,2013-09-23 06:57:00,
2013-09-23 03:02:00,48.8,45.4,30.05,NW,304,0.0,0.0,88,0.00,BKN,,0.00,WeatherDisplay:10.37,2013-09-23 07:02:00,
2013-09-23 03:07:00,48.8,45.4,30.05,NW,304,0.2,0.0,88,0.00,BKN,,0.00,WeatherDisplay:10.37,2013-09-23 07:07:00,
2013-09-23 03:12:00,48.9,45.5,30.05,NW,304,0.0,0.0,88,0.00,BKN,,0.00,WeatherDisplay:10.37,2013-09-23 07:12:00,
2013-09-23 03:17:00,48.9,45.5,30.05,NW,304,0.0,0.0,88,0.00,BKN,,0.00,WeatherDisplay:10.37,2013-09-23 07:17:00,
2013-09-23 03:22:00,48.9,45.5,30.05,NW,304,0.0,0.0,88,0.00,BKN,,0.00,WeatherDisplay:10.37,2013-09-23 07:22:00,
2013-09-23 03:27:00,49.0,45.3,30.05,WNW,301,0.0,1.2,87,0.00,BKN,,0.00,WeatherDisplay:10.37,2013-09-23 07:27:00,
2013-09-23 03:32:00,49.0,45.3,30.05,WNW,300,0.0,1.2,87,0.00,BKN,,0.00,WeatherDisplay:10.37,2013-09-23 07:32:00,
2013-09-23 03:38:00,49.0,45.0,30.05,NW,318,0.4,1.0,86,0.00,BKN,,0.00,WeatherDisplay:10.37,2013-09-23 07:38:00,
2013-09-23 03:43:00,49.1,45.1,30.05,NW,318,0.4,1.2,86,0.00,BKN,,0.00,WeatherDisplay:10.37,2013-09-23 07:43:00,
2013-09-23 03:48:00,49.1,44.8,30.05,NNW,342,0.5,2.3,85,0.00,BKN,,0.00,WeatherDisplay:10.37,2013-09-23 07:48:00,
2013-09-23 03:53:00,49.1,44.5,30.05,WNW,301,1.0,2.0,84,0.00,BKN,,0.00,WeatherDisplay:10.37,2013-09-23 07:53:00,
2013-09-23 03:58:00,49.2,44.6,30.05,NW,314,0.3,1.2,84,0.00,BKN,,0.00,WeatherDisplay:10.37,2013-09-23 07:58:00,
2013-09-23 04:03:00,49.3,44.4,30.06,NW,325,0.0,2.3,83,0.00,BKN,,0.00,WeatherDisplay:10.37,2013-09-23 08:03:00,
2013-09-23 04:09:00,49.2,44.6,30.06,NW,316,0.0,1.2,84,0.00,BKN,,0.00,WeatherDisplay:10.37,2013-09-23 08:09:00,
2013-09-23 04:14:00,49.2,44.6,30.06,North,360,0.2,1.2,84,0.00,BKN,,0.00,WeatherDisplay:10.37,2013-09-23 08:14:00,
2013-09-23 04:19:00,49.1,44.5,30.06,NNW,330,0.0,1.2,84,0.00,BKN,,0.00,WeatherDisplay:10.37,2013-09-23 08:19:00,
2013-09-23 04:24:00,49.1,44.8,30.06,NNW,330,0.0,1.2,85,0.00,BKN,,0.00,WeatherDisplay:10.37,2013-09-23 08:24:00,
2013-09-23 04:29:00,49.0,44.7,30.06,NNE,33,0.4,1.2,85,0.00,BKN,,0.00,WeatherDisplay:10.37,2013-09-23 08:29:00,
2013-09-23 04:34:00,48.9,44.9,30.06,NNE,32,0.0,0.0,86,0.00,BKN,,0.00,WeatherDisplay:10.37,2013-09-23 08:34:00,
2013-09-23 04:40:00,48.8,44.5,30.06,NNE,20,0.0,2.0,85,0.00,BKN,,0.00,WeatherDisplay:10.37,2013-09-23 08:40:00,
2013-09-23 04:45:00,48.6,44.3,30.06,NNW,333,0.0,2.0,85,0.00,BKN,,0.00,WeatherDisplay:10.37,2013-09-23 08:45:00,
2013-09-23 04:50:00,48.3,44.3,30.06,NW,322,0.0,0.0,86,0.00,BKN,,0.00,WeatherDisplay:10.37,2013-09-23 08:50:00,
2013-09-23 04:55:00,47.9,43.9,30.06,NW,322,0.1,1.2,86,0.00,BKN,,0.00,WeatherDisplay:10.37,2013-09-23 08:55:00,
2013-09-23 05:00:00,47.6,43.9,30.06,NW,322,0.0,1.0,87,0.00,BKN,,0.00,WeatherDisplay:10.37,2013-09-23 09:00:00,
2013-09-23 05:05:00,47.2,43.8,30.07,NW,322,0.0,0.0,88,0.00,BKN,,0.00,WeatherDisplay:10.37,2013-09-23 09:05:00,
2013-09-23 05:10:00,46.8,43.4,30.07,NW,322,0.0,0.0,88,0.00,BKN,,0.00,WeatherDisplay:10.37,2013-09-23 09:10:00,
2013-09-23 05:15:00,46.4,43.3,30.07,NW,322,0.0,0.0,89,0.00,BKN,,0.00,WeatherDisplay:10.37,2013-09-23 09:15:00,
2013-09-23 05:20:00,46.0,42.9,30.07,NW,322,0.0,0.0,89,0.00,BKN,,0.00,WeatherDisplay:10.37,2013-09-23 09:20:00,
2013-09-23 05:25:00,45.5,42.4,30.07,NW,322,0.0,0.0,89,0.00,BKN,,0.00,WeatherDisplay:10.37,2013-09-23 09:25:00,
2013-09-23 05:30:00,44.9,41.9,30.07,NW,322,0.0,0.0,89,0.00,BKN,,0.00,WeatherDisplay:10.37,2013-09-23 09:30:00,
2013-09-23 05:35:00,44.4,41.7,30.07,NW,322,0.0,0.0,90,0.00,BKN,,0.00,WeatherDisplay:10.37,2013-09-23 09:35:00,
2013-09-23 05:40:00,44.3,42.1,30.08,NW,322,0.0,0.0,92,0.00,BKN,,0.00,WeatherDisplay:10.37,2013-09-23 09:40:00,
2013-09-23 05:45:00,44.4,42.2,30.08,NW,322,0.0,0.0,92,0.00,BKN,,0.00,WeatherDisplay:10.37,2013-09-23 09:45:00,
2013-09-23 05:50:00,44.3,42.1,30.08,NW,322,0.0,0.0,92,0.00,BKN,,0.00,WeatherDisplay:10.37,2013-09-23 09:50:00,
2013-09-23 05:55:00,44.1,41.9,30.08,NW,322,0.0,0.0,92,0.00,BKN,,0.00,WeatherDisplay:10.37,2013-09-23 09:55:00,
2013-09-23 06:00:00,43.8,41.6,30.08,NW,322,0.0,0.0,92,0.00,BKN,,0.00,WeatherDisplay:10.37,2013-09-23 10:00:00,
2013-09-23 06:05:00,43.3,41.1,30.08,NW,322,0.0,0.0,92,0.00,FEW,,0.00,WeatherDisplay:10.37,2013-09-23 10:05:00,
2013-09-23 06:10:00,43.3,41.4,30.08,NW,322,0.0,0.0,93,0.00,FEW,,0.00,WeatherDisplay:10.37,2013-09-23 10:10:00,
2013-09-23 06:15:00,43.3,41.4,30.08,NW,322,0.0,0.0,93,0.00,FEW,,0.00,WeatherDisplay:10.37,2013-09-23 10:15:00,
2013-09-23 06:20:00,43.2,41.3,30.08,NW,322,0.0,0.0,93,0.00,FEW,,0.00,WeatherDisplay:10.37,2013-09-23 10:20:00,
2013-09-23 06:25:00,43.1,41.2,30.08,NW,322,0.0,0.0,93,0.00,FEW,,0.00,WeatherDisplay:10.37,2013-09-23 10:25:00,
2013-09-23 06:30:00,42.8,40.9,30.08,NW,322,0.0,0.0,93,0.00,FEW,,0.00,WeatherDisplay:10.37,2013-09-23 10:30:00,
2013-09-23 06:35:00,42.4,40.5,30.09,NW,322,0.0,0.0,93,0.00,FEW,,0.00,WeatherDisplay:10.37,2013-09-23 10:35:00,
2013-09-23 06:40:00,42.0,40.1,30.09,NW,322,0.0,0.0,93,0.00,FEW,,0.00,WeatherDisplay:10.37,2013-09-23 10:40:00,
2013-09-23 06:45:00,41.7,40.1,30.09,NW,322,0.0,0.0,94,0.00,FEW,,0.00,WeatherDisplay:10.37,2013-09-23 10:45:00,
2013-09-23 06:50:00,41.6,40.0,30.09,NW,322,0.0,0.0,94,0.00,FEW,,0.00,WeatherDisplay:10.37,2013-09-23 10:50:00,
2013-09-23 06:55:00,41.6,40.3,30.09,NW,322,0.0,0.0,95,0.00,FEW,,0.00,WeatherDisplay:10.37,2013-09-23 10:55:00,
2013-09-23 07:00:00,41.5,40.2,30.10,NW,322,0.0,0.0,95,0.00,FEW,,0.00,WeatherDisplay:10.37,2013-09-23 11:00:00,
2013-09-23 07:05:00,41.6,40.3,30.10,NW,322,0.0,0.0,95,0.00,FEW,,0.00,WeatherDisplay:10.37,2013-09-23 11:05:00,
2013-09-23 07:10:00,41.6,40.3,30.10,NW,322,0.0,0.0,95,0.00,FEW,,0.00,WeatherDisplay:10.37,2013-09-23 11:10:00,
2013-09-23 07:15:00,41.5,40.2,30.10,NW,322,0.0,0.0,95,0.00,FEW,,0.00,WeatherDisplay:10.37,2013-09-23 11:15:00,
2013-09-23 07:20:00,41.3,40.0,30.10,NW,322,0.0,0.0,95,0.00,FEW,,0.00,WeatherDisplay:10.37,2013-09-23 11:20:00,
2013-09-23 07:25:00,41.3,40.0,30.11,NW,322,0.0,0.0,95,0.00,FEW,,0.00,WeatherDisplay:10.37,2013-09-23 11:25:00,
2013-09-23 07:30:00,41.3,40.0,30.11,NW,322,0.0,0.0,95,0.00,FEW,,0.00,WeatherDisplay:10.37,2013-09-23 11:30:00,
2013-09-23 07:35:00,41.4,40.3,30.10,NW,322,0.0,0.0,96,0.00,FEW,,0.00,WeatherDisplay:10.37,2013-09-23 11:35:00,
2013-09-23 07:40:00,41.5,40.4,30.11,NW,322,0.0,0.0,96,0.00,FEW,,0.00,WeatherDisplay:10.37,2013-09-23 11:40:00,
2013-09-23 07:45:00,41.6,40.5,30.11,NW,322,0.0,0.0,96,0.00,FEW,,0.00,WeatherDisplay:10.37,2013-09-23 11:45:00,
2013-09-23 07:50:00,41.6,40.5,30.11,NW,322,0.0,0.0,96,0.00,FEW,,0.00,WeatherDisplay:10.37,2013-09-23 11:50:00,
2013-09-23 07:55:00,41.7,40.6,30.11,NW,322,0.0,0.0,96,0.00,FEW,,0.00,WeatherDisplay:10.37,2013-09-23 11:55:00,
2013-09-23 08:00:00,42.0,40.9,30.11,NW,322,0.0,0.0,96,0.00,FEW,,0.00,WeatherDisplay:10.37,2013-09-23 12:00:00,
2013-09-23 08:05:00,42.6,41.5,30.11,WNW,294,0.0,0.0,96,0.00,FEW,,0.00,WeatherDisplay:10.37,2013-09-23 12:05:00,
2013-09-23 08:10:00,42.9,42.1,30.11,WNW,294,0.0,0.0,97,0.00,FEW,,0.00,WeatherDisplay:10.37,2013-09-23 12:10:00,
2013-09-23 08:15:00,43.1,42.0,30.11,WNW,294,0.0,0.0,96,0.00,FEW,,0.00,WeatherDisplay:10.37,2013-09-23 12:15:00,
2013-09-23 08:20:00,43.4,42.6,30.11,WNW,293,0.0,0.0,97,0.00,FEW,,0.00,WeatherDisplay:10.37,2013-09-23 12:20:00,
2013-09-23 08:25:00,43.9,43.1,30.11,WNW,294,0.0,0.0,97,0.00,FEW,,0.00,WeatherDisplay:10.37,2013-09-23 12:25:00,
2013-09-23 08:30:00,44.5,43.7,30.12,WNW,297,0.8,1.2,97,0.00,FEW,,0.00,WeatherDisplay:10.37,2013-09-23 12:30:00,
2013-09-23 08:36:00,45.4,44.6,30.12,North,355,0.6,3.5,97,0.00,FEW,,0.00,WeatherDisplay:10.37,2013-09-23 12:36:00,
2013-09-23 08:41:00,46.1,45.0,30.12,NNW,348,1.1,3.5,96,0.00,FEW,,0.00,WeatherDisplay:10.37,2013-09-23 12:41:00,
2013-09-23 08:46:00,46.7,44.8,30.12,WNW,301,0.4,1.2,93,0.00,FEW,,0.00,WeatherDisplay:10.37,2013-09-23 12:46:00,
2013-09-23 08:51:00,47.2,44.7,30.12,North,358,0.7,2.3,91,0.00,FEW,,0.00,WeatherDisplay:10.37,2013-09-23 12:51:00,
2013-09-23 08:56:00,47.5,44.7,30.12,NNW,332,2.0,3.5,90,0.00,FEW,,0.00,WeatherDisplay:10.37,2013-09-23 12:56:00,
2013-09-23 09:01:00,47.9,45.1,30.12,NE,50,1.0,2.3,90,0.00,SCT,,0.00,WeatherDisplay:10.37,2013-09-23 13:01:00,
2013-09-23 09:06:00,48.4,44.7,30.13,NW,324,1.3,3.5,87,0.00,SCT,,0.00,WeatherDisplay:10.37,2013-09-23 13:06:00,
2013-09-23 09:11:00,48.8,44.5,30.13,NNW,335,2.0,4.6,85,0.00,SCT,,0.00,WeatherDisplay:10.37,2013-09-23 13:11:00,
2013-09-23 09:16:00,49.4,44.5,30.13,North,356,3.3,4.6,83,0.00,SCT,,0.00,WeatherDisplay:10.37,2013-09-23 13:16:00,
2013-09-23 09:21:00,49.7,44.4,30.13,North,8,1.6,3.5,82,0.00,SCT,,0.00,WeatherDisplay:10.37,2013-09-23 13:21:00,
2013-09-23 09:26:00,50.1,44.5,30.13,NW,316,1.4,2.3,81,0.00,SCT,,0.00,WeatherDisplay:10.37,2013-09-23 13:26:00,
2013-09-23 09:31:00,50.5,44.6,30.14,North,9,2.5,6.0,80,0.00,SCT,,0.00,WeatherDisplay:10.37,2013-09-23 13:31:00,
2013-09-23 09:36:00,50.8,44.2,30.13,NNW,337,3.5,6.9,78,0.00,SCT,,0.00,WeatherDisplay:10.37,2013-09-23 13:36:00,
2013-09-23 09:41:00,51.2,44.2,30.13,North,4,3.3,6.0,77,0.00,SCT,,0.00,WeatherDisplay:10.37,2013-09-23 13:41:00,
2013-09-23 09:46:00,51.3,44.0,30.14,NNW,347,0.6,3.5,76,0.00,SCT,,0.00,WeatherDisplay:10.37,2013-09-23 13:46:00,
2013-09-23 09:51:00,51.4,44.1,30.14,NW,316,2.3,4.6,76,0.00,SCT,,0.00,WeatherDisplay:10.37,2013-09-23 13:51:00,
2013-09-23 09:56:00,51.5,44.5,30.14,ENE,57,2.1,3.5,77,0.00,SCT,,0.00,WeatherDisplay:10.37,2013-09-23 13:56:00,
2013-09-23 10:01:00,51.5,43.5,30.14,NE,44,1.5,3.5,74,0.00,SCT,,0.00,WeatherDisplay:10.37,2013-09-23 14:01:00,
2013-09-23 10:06:00,51.4,43.4,30.14,NNW,342,2.0,5.8,74,0.00,SCT,,0.00,WeatherDisplay:10.37,2013-09-23 14:06:00,
2013-09-23 10:11:00,51.5,43.5,30.14,NE,34,1.6,3.5,74,0.00,SCT,,0.00,WeatherDisplay:10.37,2013-09-23 14:11:00,
2013-09-23 10:16:00,51.6,43.9,30.14,NE,46,1.4,3.5,75,0.00,SCT,,0.00,WeatherDisplay:10.37,2013-09-23 14:16:00,
2013-09-23 10:21:00,51.7,43.3,30.14,WNW,300,3.4,5.8,73,0.00,SCT,,0.00,WeatherDisplay:10.37,2013-09-23 14:21:00,
2013-09-23 10:26:00,51.5,43.1,30.14,NNE,13,3.4,6.9,73,0.00,SCT,,0.00,WeatherDisplay:10.37,2013-09-23 14:26:00,
2013-09-23 10:31:00,51.6,42.9,30.14,NW,312,3.3,4.6,72,0.00,SCT,,0.00,WeatherDisplay:10.37,2013-09-23 14:31:00,
2013-09-23 10:36:00,52.2,43.8,30.14,NNE,29,3.1,4.6,73,0.00,SCT,,0.00,WeatherDisplay:10.37,2013-09-23 14:36:00,
2013-09-23 10:41:00,52.8,43.3,30.14,NE,49,4.3,9.2,70,0.00,SCT,,0.00,WeatherDisplay:10.37,2013-09-23 14:41:00,
2013-09-23 10:46:00,53.1,43.6,30.14,East,85,2.6,10.4,70,0.00,SCT,,0.00,WeatherDisplay:10.37,2013-09-23 14:46:00,
2013-09-23 10:51:00,53.6,43.3,30.14,NW,323,2.2,5.0,68,0.00,SCT,,0.00,WeatherDisplay:10.37,2013-09-23 14:51:00,
2013-09-23 10:56:00,53.8,43.9,30.15,NW,319,3.8,5.8,69,0.00,SCT,,0.00,WeatherDisplay:10.37,2013-09-23 14:56:00,
2013-09-23 11:01:00,54.1,43.8,30.15,WNW,297,2.1,3.5,68,0.00,BKN,,0.00,WeatherDisplay:10.37,2013-09-23 15:01:00,
2013-09-23 11:06:00,54.2,43.9,30.14,NNE,32,3.2,5.0,68,0.00,BKN,,0.00,WeatherDisplay:10.37,2013-09-23 15:06:00,
2013-09-23 11:11:00,53.9,43.2,30.15,NNE,22,3.3,5.8,67,0.00,BKN,,0.00,WeatherDisplay:10.37,2013-09-23 15:11:00,
2013-09-23 11:16:00,53.4,43.5,30.15,West,281,3.9,8.1,69,0.00,BKN,,0.00,WeatherDisplay:10.37,2013-09-23 15:16:00,
2013-09-23 11:21:00,53.4,43.5,30.15,North,8,2.6,3.5,69,0.00,BKN,,0.00,WeatherDisplay:10.37,2013-09-23 15:21:00,
2013-09-23 11:26:00,53.4,43.1,30.15,North,360,4.4,9.2,68,0.00,BKN,,0.00,WeatherDisplay:10.37,2013-09-23 15:26:00,
2013-09-23 11:31:00,53.3,43.4,30.15,East,85,2.5,6.9,69,0.00,BKN,,0.00,WeatherDisplay:10.37,2013-09-23 15:31:00,
2013-09-23 11:36:00,53.5,44.0,30.15,NNE,20,4.3,5.8,70,0.00,BKN,,0.00,WeatherDisplay:10.37,2013-09-23 15:36:00,
2013-09-23 11:41:00,54.0,44.4,30.15,NE,50,1.5,3.5,70,0.00,BKN,,0.00,WeatherDisplay:10.37,2013-09-23 15:41:00,
2013-09-23 11:46:00,53.5,42.8,30.15,WNW,300,5.7,9.2,67,0.00,BKN,,0.00,WeatherDisplay:10.37,2013-09-23 15:46:00,
2013-09-23 11:51:00,52.8,42.5,30.15,NNW,333,2.6,4.0,68,0.00,BKN,,0.00,WeatherDisplay:10.37,2013-09-23 15:51:00,
2013-09-23 11:56:00,53.2,42.1,30.15,NW,308,4.0,8.1,66,0.00,BKN,,0.00,WeatherDisplay:10.37,2013-09-23 15:56:00,
2013-09-23 12:01:00,53.7,43.4,30.15,NE,43,3.0,5.8,68,0.00,SCT,,0.00,WeatherDisplay:10.37,2013-09-23 16:01:00,
2013-09-23 12:06:00,54.1,43.4,30.15,NE,36,5.0,8.1,67,0.00,SCT,,0.00,WeatherDisplay:10.37,2013-09-23 16:06:00,
2013-09-23 12:11:00,53.5,42.8,30.15,North,354,4.1,5.8,67,0.00,SCT,,0.00,WeatherDisplay:10.37,2013-09-23 16:11:00,
2013-09-23 12:16:00,54.1,43.4,30.15,NW,306,4.6,5.8,67,0.00,SCT,,0.00,WeatherDisplay:10.37,2013-09-23 16:16:00,
2013-09-23 12:21:00,54.2,43.1,30.15,NW,308,2.5,3.5,66,0.00,SCT,,0.00,WeatherDisplay:10.37,2013-09-23 16:21:00,
2013-09-23 12:26:00,53.9,42.4,30.15,NW,315,3.1,10.4,65,0.00,SCT,,0.00,WeatherDisplay:10.37,2013-09-23 16:26:00,
2013-09-23 12:31:00,54.3,42.0,30.15,WNW,301,4.8,5.8,63,0.00,SCT,,0.00,WeatherDisplay:10.37,2013-09-23 16:31:00,
2013-09-23 12:36:00,55.0,44.2,30.15,NW,309,3.2,5.8,67,0.00,SCT,,0.00,WeatherDisplay:10.37,2013-09-23 16:36:00,
2013-09-23 12:41:00,55.0,43.8,30.15,West,276,7.5,12.7,66,0.00,SCT,,0.00,WeatherDisplay:10.37,2013-09-23 16:41:00,
2013-09-23 12:46:00,54.4,42.9,30.14,SSW,211,4.3,8.1,65,0.00,SCT,,0.00,WeatherDisplay:10.37,2013-09-23 16:46:00,
2013-09-23 12:51:00,54.9,44.1,30.14,North,9,3.6,5.8,67,0.00,SCT,,0.00,WeatherDisplay:10.37,2013-09-23 16:51:00,
2013-09-23 12:56:00,55.1,43.1,30.14,NW,325,5.6,9.2,64,0.00,SCT,,0.00,WeatherDisplay:10.37,2013-09-23 16:56:00,
2013-09-23 13:01:00,55.0,43.4,30.14,ENE,57,4.2,6.9,65,0.00,FEW,,0.00,WeatherDisplay:10.37,2013-09-23 17:01:00,
2013-09-23 13:07:00,54.6,43.5,30.14,NNW,329,3.0,5.0,66,0.00,FEW,,0.00,WeatherDisplay:10.37,2013-09-23 17:07:00,
2013-09-23 13:12:00,55.0,43.8,30.14,NW,308,4.9,9.2,66,0.00,FEW,,0.00,WeatherDisplay:10.37,2013-09-23 17:12:00,
2013-09-23 13:17:00,54.8,42.4,30.14,NNW,339,4.8,10.4,63,0.00,FEW,,0.00,WeatherDisplay:10.37,2013-09-23 17:17:00,
2013-09-23 13:22:00,54.8,43.3,30.14,ENE,65,3.2,4.6,65,0.00,FEW,,0.00,WeatherDisplay:10.37,2013-09-23 17:22:00,
2013-09-23 13:27:00,54.5,42.2,30.14,WNW,301,3.1,6.9,63,0.00,FEW,,0.00,WeatherDisplay:10.37,2013-09-23 17:27:00,
2013-09-23 13:32:00,54.8,43.3,30.14,NNW,343,2.3,8.1,65,0.00,FEW,,0.00,WeatherDisplay:10.37,2013-09-23 17:32:00,
2013-09-23 13:38:00,55.1,43.5,30.14,North,351,5.2,8.1,65,0.00,FEW,,0.00,WeatherDisplay:10.37,2013-09-23 17:38:00,
2013-09-23 13:43:00,55.5,43.9,30.14,NNW,332,5.3,8.1,65,0.00,FEW,,0.00,WeatherDisplay:10.37,2013-09-23 17:43:00,
2013-09-23 13:48:00,55.6,42.8,30.13,NW,314,2.5,4.6,62,0.00,FEW,,0.00,WeatherDisplay:10.37,2013-09-23 17:48:00,
2013-09-23 13:53:00,55.5,41.4,30.13,WNW,302,3.3,4.6,59,0.00,FEW,,0.00,WeatherDisplay:10.37,2013-09-23 17:53:00,
2013-09-23 13:58:00,55.3,42.1,30.13,NNW,328,5.7,8.1,61,0.00,FEW,,0.00,WeatherDisplay:10.37,2013-09-23 17:58:00,
2013-09-23 14:03:00,55.3,42.9,30.13,WNW,303,2.7,6.0,63,0.00,FEW,,0.00,WeatherDisplay:10.37,2013-09-23 18:03:00,
2013-09-23 14:08:00,55.8,42.5,30.13,West,271,2.6,5.8,61,0.00,FEW,,0.00,WeatherDisplay:10.37,2013-09-23 18:08:00,
2013-09-23 14:13:00,56.2,42.9,30.13,NNW,329,4.3,6.9,61,0.00,FEW,,0.00,WeatherDisplay:10.37,2013-09-23 18:13:00,
2013-09-23 14:18:00,55.9,41.8,30.13,NW,313,2.4,7.0,59,0.00,FEW,,0.00,WeatherDisplay:10.37,2013-09-23 18:18:00,
2013-09-23 14:23:00,55.9,43.1,30.13,WNW,287,2.6,5.0,62,0.00,FEW,,0.00,WeatherDisplay:10.37,2013-09-23 18:23:00,
2013-09-23 14:28:00,56.1,42.8,30.13,West,267,3.2,7.0,61,0.00,FEW,,0.00,WeatherDisplay:10.37,2013-09-23 18:28:00,
2013-09-23 14:33:00,56.0,43.2,30.13,NW,322,4.6,5.8,62,0.00,FEW,,0.00,WeatherDisplay:10.37,2013-09-23 18:33:00,
2013-09-23 14:38:00,55.8,41.7,30.13,NW,323,3.1,5.0,59,0.00,FEW,,0.00,WeatherDisplay:10.37,2013-09-23 18:38:00,
2013-09-23 14:43:00,56.2,43.3,30.12,NW,316,3.5,6.9,62,0.00,FEW,,0.00,WeatherDisplay:10.37,2013-09-23 18:43:00,
2013-09-23 14:48:00,56.4,44.0,30.12,WNW,288,3.0,4.6,63,0.00,FEW,,0.00,WeatherDisplay:10.37,2013-09-23 18:48:00,
2013-09-23 14:53:00,56.5,43.6,30.12,WNW,297,4.3,8.0,62,0.00,FEW,,0.00,WeatherDisplay:10.37,2013-09-23 18:53:00,
2013-09-23 14:58:00,56.2,41.2,30.12,NNW,334,4.7,9.2,57,0.00,FEW,,0.00,WeatherDisplay:10.37,2013-09-23 18:58:00,
2013-09-23 15:03:00,56.4,43.5,30.12,NNW,329,2.2,6.9,62,0.00,FEW,,0.00,WeatherDisplay:10.37,2013-09-23 19:03:00,
2013-09-23 15:08:00,56.3,42.6,30.12,WNW,294,2.1,4.0,60,0.00,FEW,,0.00,WeatherDisplay:10.37,2013-09-23 19:08:00,
2013-09-23 15:13:00,56.6,42.9,30.12,WNW,295,4.0,6.9,60,0.00,FEW,,0.00,WeatherDisplay:10.37,2013-09-23 19:13:00,
2013-09-23 15:18:00,56.4,41.8,30.12,West,259,4.8,8.1,58,0.00,FEW,,0.00,WeatherDisplay:10.37,2013-09-23 19:18:00,
2013-09-23 15:23:00,56.1,42.4,30.11,NE,34,5.2,8.1,60,0.00,FEW,,0.00,WeatherDisplay:10.37,2013-09-23 19:23:00,
2013-09-23 15:28:00,56.4,43.1,30.11,NNW,340,3.1,8.1,61,0.00,FEW,,0.00,WeatherDisplay:10.37,2013-09-23 19:28:00,
2013-09-23 15:33:00,56.4,43.5,30.11,SSW,205,4.8,5.8,62,0.00,FEW,,0.00,WeatherDisplay:10.37,2013-09-23 19:33:00,
2013-09-23 15:38:00,56.8,43.9,30.11,North,360,4.6,8.1,62,0.00,FEW,,0.00,WeatherDisplay:10.37,2013-09-23 19:38:00,
2013-09-23 15:43:00,56.9,44.0,30.11,West,263,3.8,5.8,62,0.00,FEW,,0.00,WeatherDisplay:10.37,2013-09-23 19:43:00,
2013-09-23 15:48:00,57.1,43.8,30.11,WNW,298,2.8,5.8,61,0.00,FEW,,0.00,WeatherDisplay:10.37,2013-09-23 19:48:00,
2013-09-23 15:53:00,57.1,43.8,30.11,NW,306,2.5,4.6,61,0.00,FEW,,0.00,WeatherDisplay:10.37,2013-09-23 19:53:00,
2013-09-23 15:58:00,57.3,44.0,30.11,NE,41,2.4,3.5,61,0.00,FEW,,0.00,WeatherDisplay:10.37,2013-09-23 19:58:00,
2013-09-23 16:03:00,57.6,44.2,30.11,NW,309,4.5,6.0,61,0.00,FEW,,0.00,WeatherDisplay:10.37,2013-09-23 20:03:00,
2013-09-23 16:08:00,57.5,44.1,30.11,NNW,346,3.6,5.8,61,0.00,FEW,,0.00,WeatherDisplay:10.37,2013-09-23 20:08:00,
2013-09-23 16:13:00,57.5,44.6,30.11,NNW,335,2.6,4.6,62,0.00,FEW,,0.00,WeatherDisplay:10.37,2013-09-23 20:13:00,
2013-09-23 16:18:00,57.4,43.6,30.10,WNW,284,5.1,6.9,60,0.00,FEW,,0.00,WeatherDisplay:10.37,2013-09-23 20:18:00,
2013-09-23 16:23:00,57.4,43.6,30.10,North,6,3.3,6.9,60,0.00,FEW,,0.00,WeatherDisplay:10.37,2013-09-23 20:23:00,
2013-09-23 16:29:00,57.4,43.2,30.10,NW,314,5.9,8.1,59,0.00,FEW,,0.00,WeatherDisplay:10.37,2013-09-23 20:29:00,
2013-09-23 16:34:00,57.2,43.0,30.11,WNW,294,3.8,5.8,59,0.00,FEW,,0.00,WeatherDisplay:10.37,2013-09-23 20:34:00,
2013-09-23 16:39:00,57.3,43.5,30.10,ENE,67,3.7,5.0,60,0.00,FEW,,0.00,WeatherDisplay:10.37,2013-09-23 20:39:00,
2013-09-23 16:44:00,57.4,41.8,30.11,WNW,290,5.5,6.0,56,0.00,FEW,,0.00,WeatherDisplay:10.37,2013-09-23 20:44:00,
2013-09-23 16:50:00,57.3,43.1,30.11,NW,314,2.6,4.0,59,0.00,FEW,,0.00,WeatherDisplay:10.37,2013-09-23 20:50:00,
2013-09-23 16:55:00,57.7,43.9,30.11,West,280,4.1,6.9,60,0.00,FEW,,0.00,WeatherDisplay:10.37,2013-09-23 20:55:00,
2013-09-23 17:00:00,57.7,43.0,30.11,West,273,2.9,4.6,58,0.00,FEW,,0.00,WeatherDisplay:10.37,2013-09-23 21:00:00,
2013-09-23 17:05:00,58.0,43.7,30.11,NW,309,3.7,6.0,59,0.00,CLR,,0.00,WeatherDisplay:10.37,2013-09-23 21:05:00,
2013-09-23 17:10:00,57.5,41.9,30.11,WNW,297,2.1,6.0,56,0.00,CLR,,0.00,WeatherDisplay:10.37,2013-09-23 21:10:00,
2013-09-23 17:15:00,57.2,41.6,30.11,West,271,3.0,5.8,56,0.00,CLR,,0.00,WeatherDisplay:10.37,2013-09-23 21:15:00,
2013-09-23 17:20:00,57.2,42.5,30.11,WNW,287,2.8,6.9,58,0.00,CLR,,0.00,WeatherDisplay:10.37,2013-09-23 21:20:00,
2013-09-23 17:25:00,57.5,44.1,30.11,WNW,290,0.9,2.3,61,0.00,CLR,,0.00,WeatherDisplay:10.37,2013-09-23 21:25:00,
2013-09-23 17:30:00,58.3,44.0,30.11,NW,315,2.9,3.5,59,0.00,CLR,,0.00,WeatherDisplay:10.37,2013-09-23 21:30:00,
2013-09-23 17:35:00,58.1,44.3,30.11,WNW,301,1.9,3.5,60,0.00,CLR,,0.00,WeatherDisplay:10.37,2013-09-23 21:35:00,
2013-09-23 17:40:00,57.6,42.0,30.11,WNW,284,3.1,5.8,56,0.00,CLR,,0.00,WeatherDisplay:10.37,2013-09-23 21:40:00,
2013-09-23 17:45:00,57.4,42.7,30.11,NW,326,1.7,3.5,58,0.00,CLR,,0.00,WeatherDisplay:10.37,2013-09-23 21:45:00,
2013-09-23 17:50:00,57.3,43.1,30.11,West,274,1.4,4.6,59,0.00,CLR,,0.00,WeatherDisplay:10.37,2013-09-23 21:50:00,
2013-09-23 17:55:00,57.8,43.6,30.11,SSW,210,2.5,3.5,59,0.00,CLR,,0.00,WeatherDisplay:10.37,2013-09-23 21:55:00,
2013-09-23 18:00:00,57.7,43.5,30.11,NW,312,2.2,3.5,59,0.00,CLR,,0.00,WeatherDisplay:10.37,2013-09-23 22:00:00,
2013-09-23 18:05:00,57.5,44.1,30.11,West,263,1.0,2.3,61,0.00,CLR,,0.00,WeatherDisplay:10.37,2013-09-23 22:05:00,
2013-09-23 18:11:00,57.7,43.9,30.11,West,269,0.9,1.2,60,0.00,CLR,,0.00,WeatherDisplay:10.37,2013-09-23 22:11:00,
2013-09-23 18:16:00,57.8,44.0,30.11,WNW,297,1.2,3.5,60,0.00,CLR,,0.00,WeatherDisplay:10.37,2013-09-23 22:16:00,
2013-09-23 18:21:00,57.3,43.5,30.11,WSW,255,1.5,3.5,60,0.00,CLR,,0.00,WeatherDisplay:10.37,2013-09-23 22:21:00,
2013-09-23 18:26:00,57.2,43.9,30.11,West,276,0.3,1.2,61,0.00,CLR,,0.00,WeatherDisplay:10.37,2013-09-23 22:26:00,
2013-09-23 18:31:00,57.5,44.1,30.11,WSW,245,0.9,2.3,61,0.00,CLR,,0.00,WeatherDisplay:10.37,2013-09-23 22:31:00,
2013-09-23 18:36:00,57.8,44.4,30.11,WSW,245,0.0,0.0,61,0.00,CLR,,0.00,WeatherDisplay:10.37,2013-09-23 22:36:00,
2013-09-23 18:41:00,58.2,44.4,30.11,WSW,245,0.1,1.2,60,0.00,CLR,,0.00,WeatherDisplay:10.37,2013-09-23 22:41:00,
2013-09-23 18:46:00,58.6,44.8,30.11,WSW,245,0.0,0.0,60,0.00,CLR,,0.00,WeatherDisplay:10.37,2013-09-23 22:46:00,
2013-09-23 18:51:00,58.8,44.5,30.11,WSW,245,0.0,0.0,59,0.00,CLR,,0.00,WeatherDisplay:10.37,2013-09-23 22:51:00,
2013-09-23 18:56:00,58.2,44.8,30.11,WSW,245,0.0,0.0,61,0.00,CLR,,0.00,WeatherDisplay:10.37,2013-09-23 22:56:00,
2013-09-23 19:01:00,57.2,45.5,30.11,WSW,245,0.0,0.0,65,0.00,CLR,,0.00,WeatherDisplay:10.37,2013-09-23 23:01:00,
2013-09-23 19:06:00,55.9,45.1,30.11,WSW,245,0.0,0.0,67,0.00,CLR,,0.00,WeatherDisplay:10.37,2013-09-23 23:06:00,
2013-09-23 19:11:00,54.4,45.2,30.11,WSW,245,0.0,0.0,71,0.00,CLR,,0.00,WeatherDisplay:10.37,2013-09-23 23:11:00,
2013-09-23 19:16:00,53.1,44.7,30.11,WSW,245,0.0,0.0,73,0.00,CLR,,0.00,WeatherDisplay:10.37,2013-09-23 23:16:00,
2013-09-23 19:21:00,52.1,44.8,30.11,WSW,245,0.0,0.0,76,0.00,CLR,,0.00,WeatherDisplay:10.37,2013-09-23 23:21:00,
2013-09-23 19:26:00,51.2,44.9,30.11,WSW,245,0.0,0.0,79,0.00,CLR,,0.00,WeatherDisplay:10.37,2013-09-23 23:26:00,
2013-09-23 19:31:00,50.5,44.9,30.11,WSW,245,0.0,0.0,81,0.00,CLR,,0.00,WeatherDisplay:10.37,2013-09-23 23:31:00,
2013-09-23 19:36:00,49.9,44.6,30.11,WSW,245,0.0,0.0,82,0.00,CLR,,0.00,WeatherDisplay:10.37,2013-09-23 23:36:00,
2013-09-23 19:42:00,49.3,44.4,30.11,WSW,245,0.0,0.0,83,0.00,CLR,,0.00,WeatherDisplay:10.37,2013-09-23 23:42:00,
2013-09-23 19:47:00,48.9,44.6,30.11,WSW,245,0.0,0.0,85,0.00,CLR,,0.00,WeatherDisplay:10.37,2013-09-23 23:47:00,
2013-09-23 19:52:00,48.5,44.5,30.11,WSW,245,0.0,0.0,86,0.00,CLR,,0.00,WeatherDisplay:10.37,2013-09-23 23:52:00,
2013-09-23 19:57:00,48.0,44.0,30.11,WSW,245,0.0,0.0,86,0.00,CLR,,0.00,WeatherDisplay:10.37,2013-09-23 23:57:00,
2013-09-23 20:02:00,47.7,44.3,30.11,WSW,245,0.0,0.0,88,0.00,FEW,,0.00,WeatherDisplay:10.37,2013-09-24 00:02:00,
2013-09-23 20:07:00,47.4,44.0,30.11,WSW,245,0.0,0.0,88,0.00,FEW,,0.00,WeatherDisplay:10.37,2013-09-24 00:07:00,
2013-09-23 20:12:00,47.2,44.1,30.11,WSW,245,0.0,0.0,89,0.00,FEW,,0.00,WeatherDisplay:10.37,2013-09-24 00:12:00,
2013-09-23 20:17:00,47.0,44.2,30.11,WSW,245,0.0,0.0,90,0.00,FEW,,0.00,WeatherDisplay:10.37,2013-09-24 00:17:00,
2013-09-23 20:22:00,46.5,43.4,30.11,WSW,245,0.0,0.0,89,0.00,FEW,,0.00,WeatherDisplay:10.37,2013-09-24 00:22:00,
2013-09-23 20:27:00,46.3,43.5,30.11,WSW,245,0.0,0.0,90,0.00,FEW,,0.00,WeatherDisplay:10.37,2013-09-24 00:27:00,
2013-09-23 20:32:00,45.9,43.1,30.11,WSW,245,0.0,0.0,90,0.00,FEW,,0.00,WeatherDisplay:10.37,2013-09-24 00:32:00,
2013-09-23 20:37:00,45.6,43.1,30.11,WSW,245,0.4,1.2,91,0.00,FEW,,0.00,WeatherDisplay:10.37,2013-09-24 00:37:00,
2013-09-23 20:42:00,45.6,43.1,30.11,WSW,245,0.0,0.0,91,0.00,FEW,,0.00,WeatherDisplay:10.37,2013-09-24 00:42:00,
2013-09-23 20:47:00,45.5,43.3,30.11,WSW,245,0.0,0.0,92,0.00,FEW,,0.00,WeatherDisplay:10.37,2013-09-24 00:47:00,
2013-09-23 20:52:00,45.5,43.3,30.11,WSW,245,0.0,0.0,92,0.00,FEW,,0.00,WeatherDisplay:10.37,2013-09-24 00:52:00,
2013-09-23 20:57:00,45.4,43.2,30.11,WSW,245,0.0,0.0,92,0.00,FEW,,0.00,WeatherDisplay:10.37,2013-09-24 00:57:00,
2013-09-23 21:02:00,45.1,42.9,30.11,WSW,245,0.0,0.0,92,0.00,FEW,,0.00,WeatherDisplay:10.37,2013-09-24 01:02:00,
2013-09-23 21:07:00,44.8,42.9,30.11,WSW,245,0.0,0.0,93,0.00,FEW,,0.00,WeatherDisplay:10.37,2013-09-24 01:07:00,
2013-09-23 21:12:00,44.5,42.6,30.11,WSW,245,0.0,0.0,93,0.00,FEW,,0.00,WeatherDisplay:10.37,2013-09-24 01:12:00,
2013-09-23 21:17:00,44.3,42.4,30.11,WSW,245,0.0,0.0,93,0.00,FEW,,0.00,WeatherDisplay:10.37,2013-09-24 01:17:00,
2013-09-23 21:22:00,44.0,42.1,30.11,WSW,245,0.0,0.0,93,0.00,FEW,,0.00,WeatherDisplay:10.37,2013-09-24 01:22:00,
2013-09-23 21:27:00,43.9,42.3,30.11,WSW,245,0.0,0.0,94,0.00,FEW,,0.00,WeatherDisplay:10.37,2013-09-24 01:27:00,
2013-09-23 21:32:00,43.9,42.3,30.11,WSW,245,0.0,0.0,94,0.00,FEW,,0.00,WeatherDisplay:10.37,2013-09-24 01:32:00,
2013-09-23 21:37:00,43.9,42.3,30.11,WSW,245,0.0,0.0,94,0.00,FEW,,0.00,WeatherDisplay:10.37,2013-09-24 01:37:00,
2013-09-23 21:42:00,44.0,42.4,30.11,WSW,245,0.0,0.0,94,0.00,FEW,,0.00,WeatherDisplay:10.37,2013-09-24 01:42:00,
2013-09-23 21:47:00,43.8,42.2,30.11,WSW,245,0.0,0.0,94,0.00,FEW,,0.00,WeatherDisplay:10.37,2013-09-24 01:47:00,
2013-09-23 21:52:00,43.8,42.2,30.11,WSW,245,0.0,0.0,94,0.00,FEW,,0.00,WeatherDisplay:10.37,2013-09-24 01:52:00,
2013-09-23 21:57:00,43.7,42.1,30.11,WSW,245,0.0,0.0,94,0.00,FEW,,0.00,WeatherDisplay:10.37,2013-09-24 01:57:00,
2013-09-23 22:02:00,43.5,41.9,30.11,WSW,245,0.0,0.0,94,0.00,CLR,,0.00,WeatherDisplay:10.37,2013-09-24 02:02:00,
2013-09-23 22:07:00,43.5,42.2,30.11,WSW,245,0.0,0.0,95,0.00,CLR,,0.00,WeatherDisplay:10.37,2013-09-24 02:07:00,
2013-09-23 22:12:00,43.4,42.1,30.11,WSW,245,0.0,0.0,95,0.00,CLR,,0.00,WeatherDisplay:10.37,2013-09-24 02:12:00,
2013-09-23 22:17:00,43.2,41.9,30.12,WSW,245,0.0,0.0,95,0.00,CLR,,0.00,WeatherDisplay:10.37,2013-09-24 02:17:00,
2013-09-23 22:22:00,43.2,41.9,30.12,WSW,245,0.0,0.0,95,0.00,CLR,,0.00,WeatherDisplay:10.37,2013-09-24 02:22:00,
2013-09-23 22:28:00,43.3,42.0,30.12,WSW,245,0.0,0.0,95,0.00,CLR,,0.00,WeatherDisplay:10.37,2013-09-24 02:28:00,
2013-09-23 22:33:00,43.2,41.9,30.12,WSW,245,0.0,0.0,95,0.00,CLR,,0.00,WeatherDisplay:10.37,2013-09-24 02:33:00,
2013-09-23 22:38:00,43.1,41.8,30.12,WSW,245,0.0,0.0,95,0.00,CLR,,0.00,WeatherDisplay:10.37,2013-09-24 02:38:00,
2013-09-23 22:43:00,43.0,41.7,30.12,WSW,245,0.0,0.0,95,0.00,CLR,,0.00,WeatherDisplay:10.37,2013-09-24 02:43:00,
2013-09-23 22:48:00,42.9,41.6,30.11,WSW,245,0.0,0.0,95,0.00,CLR,,0.00,WeatherDisplay:10.37,2013-09-24 02:48:00,
2013-09-23 22:53:00,43.0,41.7,30.11,WSW,245,0.0,0.0,95,0.00,CLR,,0.00,WeatherDisplay:10.37,2013-09-24 02:53:00,
2013-09-23 22:58:00,43.1,41.8,30.11,WSW,245,0.0,0.0,95,0.00,CLR,,0.00,WeatherDisplay:10.37,2013-09-24 02:58:00,
2013-09-23 23:03:00,43.0,41.7,30.12,WSW,245,0.0,0.0,95,0.00,CLR,,0.00,WeatherDisplay:10.37,2013-09-24 03:03:00,
2013-09-23 23:08:00,42.9,41.6,30.12,WSW,245,0.0,0.0,95,0.00,CLR,,0.00,WeatherDisplay:10.37,2013-09-24 03:08:00,
2013-09-23 23:13:00,42.9,41.6,30.11,WSW,245,0.0,0.0,95,0.00,CLR,,0.00,WeatherDisplay:10.37,2013-09-24 03:13:00,
2013-09-23 23:18:00,42.9,41.6,30.12,WSW,245,0.0,0.0,95,0.00,CLR,,0.00,WeatherDisplay:10.37,2013-09-24 03:18:00,
2013-09-23 23:23:00,42.8,41.5,30.12,WSW,245,0.0,0.0,95,0.00,CLR,,0.00,WeatherDisplay:10.37,2013-09-24 03:23:00,
2013-09-23 23:28:00,42.7,41.4,30.12,WSW,245,0.0,0.0,95,0.00,CLR,,0.00,WeatherDisplay:10.37,2013-09-24 03:28:00,
2013-09-23 23:33:00,42.8,41.5,30.12,WSW,245,0.0,0.0,95,0.00,CLR,,0.00,WeatherDisplay:10.37,2013-09-24 03:33:00,
2013-09-23 23:38:00,42.8,41.7,30.12,WSW,245,0.0,0.0,96,0.00,CLR,,0.00,WeatherDisplay:10.37,2013-09-24 03:38:00,
2013-09-23 23:43:00,42.7,41.4,30.12,WSW,245,0.0,0.0,95,0.00,CLR,,0.00,WeatherDisplay:10.37,2013-09-24 03:43:00,
2013-09-23 23:48:00,42.6,41.3,30.12,WSW,245,0.0,0.0,95,0.00,CLR,,0.00,WeatherDisplay:10.37,2013-09-24 03:48:00,
2013-09-23 23:53:00,42.5,41.2,30.12,WSW,245,0.0,0.0,95,0.00,CLR,,0.00,WeatherDisplay:10.37,2013-09-24 03:53:00,
2013-09-23 23:58:00,42.4,41.3,30.12,WSW,245,0.0,0.0,96,0.00,CLR,,0.00,WeatherDisplay:10.37,2013-09-24 03:58:00,